SLAYR40 KISO-KILM

Flight info

Callsign SLAYR40
Flight time N/A
Altitude VFR/045
Route
Aircraft H60/L-VD/C

Departure

Time N/A
Airport Kinston Regional Jetport At Stallings Field (KISO)

Arrival

Time 2026-05-06 23:27
Airport Wilmington International Airport (KILM)
Time Latitude Longitude Altitude Speed Heading
2026-05-06 23:07 34.78554 -77.81792 3860 ft 127 kts 227°
2026-05-06 23:07 34.77763 -77.82279 3649 ft 126 kts 225°
2026-05-06 23:08 34.77005 -77.82765 3442 ft 122 kts 225°
2026-05-06 23:08 34.76285 -77.83285 3133 ft 117 kts 229°
2026-05-06 23:08 34.75653 -77.83828 3000 ft 106 kts 238°
2026-05-06 23:08 34.75110 -77.84364 3070 ft 96 kts 240°
2026-05-06 23:09 34.74602 -77.84890 3145 ft 98 kts 243°
2026-05-06 23:09 34.74047 -77.85454 2940 ft 111 kts 221°
2026-05-06 23:09 34.73335 -77.85871 2685 ft 115 kts 200°
2026-05-06 23:09 34.72549 -77.85976 2693 ft 112 kts 184°
2026-05-06 23:10 34.71810 -77.85877 2909 ft 101 kts 176°
2026-05-06 23:10 34.71159 -77.85710 3205 ft 91 kts 176°
2026-05-06 23:10 34.70560 -77.85520 2881 ft 86 kts 173°
2026-05-06 23:10 34.70015 -77.85305 2603 ft 79 kts 170°
2026-05-06 23:11 34.69503 -77.85088 2357 ft 77 kts 179°
2026-05-06 23:11 34.69008 -77.84865 2161 ft 75 kts 178°
2026-05-06 23:11 34.68531 -77.84636 1970 ft 75 kts 179°
2026-05-06 23:11 34.68054 -77.84414 1807 ft 73 kts 182°
2026-05-06 23:12 34.67571 -77.84213 1723 ft 72 kts 183°
2026-05-06 23:12 34.67111 -77.84031 1689 ft 68 kts 182°
2026-05-06 23:12 34.66601 -77.83873 1672 ft 82 kts 189°
2026-05-06 23:12 34.66008 -77.83747 1616 ft 90 kts 189°
2026-05-06 23:13 34.65375 -77.83652 1485 ft 92 kts 191°
2026-05-06 23:13 34.64735 -77.83593 1463 ft 98 kts 191°
2026-05-06 23:13 34.64070 -77.83552 1479 ft 94 kts 192°
2026-05-06 23:13 34.63412 -77.83509 1493 ft 94 kts 194°
2026-05-06 23:14 34.62788 -77.83458 1484 ft 89 kts 194°
2026-05-06 23:14 34.62176 -77.83403 1479 ft 89 kts 194°
2026-05-06 23:14 34.61532 -77.83367 1479 ft 92 kts 186°
2026-05-06 23:14 34.60817 -77.83163 1475 ft 110 kts 180°
2026-05-06 23:15 34.60115 -77.82879 1478 ft 102 kts 181°
2026-05-06 23:15 34.59456 -77.82602 1478 ft 99 kts 184°
2026-05-06 23:15 34.58798 -77.82330 1475 ft 99 kts 189°
2026-05-06 23:15 34.58151 -77.82175 1478 ft 92 kts 191°
2026-05-06 23:16 34.57534 -77.82284 1466 ft 93 kts 203°
2026-05-06 23:16 34.56927 -77.82599 1472 ft 95 kts 209°
2026-05-06 23:16 34.56330 -77.82978 1457 ft 102 kts 210°
2026-05-06 23:16 34.55692 -77.83390 1468 ft 106 kts 209°
2026-05-06 23:17 34.55023 -77.83799 1469 ft 109 kts 206°
2026-05-06 23:17 34.54335 -77.84209 1472 ft 111 kts 206°
2026-05-06 23:17 34.53631 -77.84614 1474 ft 114 kts 205°
2026-05-06 23:17 34.52829 -77.84867 1481 ft 127 kts 195°
2026-05-06 23:18 34.51934 -77.85087 936 ft 138 kts 194°
2026-05-06 23:18 34.51080 -77.85418 1079 ft 112 kts 131°
2026-05-06 23:18 34.50384 -77.85544 1483 ft 108 kts 191°
2026-05-06 23:18 34.49615 -77.85472 1550 ft 115 kts 188°
2026-05-06 23:19 34.48798 -77.85371 1410 ft 119 kts 183°
2026-05-06 23:19 34.47991 -77.85259 1325 ft 116 kts 187°
2026-05-06 23:19 34.47203 -77.85265 1351 ft 110 kts 194°
2026-05-06 23:19 34.46440 -77.85377 1181 ft 112 kts 196°
2026-05-06 23:20 34.45658 -77.85475 998 ft 110 kts 192°
2026-05-06 23:20 34.44925 -77.85560 1110 ft 100 kts 193°
2026-05-06 23:20 34.44237 -77.85627 1227 ft 98 kts 197°
2026-05-06 23:20 34.43565 -77.85684 1321 ft 96 kts 197°
2026-05-06 23:21 34.42894 -77.85785 1374 ft 100 kts 202°
2026-05-06 23:21 34.42177 -77.85900 1354 ft 108 kts 194°
2026-05-06 23:21 34.41415 -77.86011 1251 ft 113 kts 195°
2026-05-06 23:21 34.40647 -77.86179 1183 ft 111 kts 199°
2026-05-06 23:22 34.39917 -77.86404 1142 ft 106 kts 201°
2026-05-06 23:22 34.39211 -77.86640 1122 ft 104 kts 200°
2026-05-06 23:22 34.38531 -77.86897 1138 ft 101 kts 204°
2026-05-06 23:22 34.37865 -77.87183 1170 ft 103 kts 200°
2026-05-06 23:23 34.37187 -77.87513 971 ft 106 kts 201°
2026-05-06 23:23 34.36511 -77.87801 859 ft 102 kts 200°
2026-05-06 23:23 34.35854 -77.88039 768 ft 95 kts 196°
2026-05-06 23:23 34.35249 -77.88267 743 ft 88 kts 199°
2026-05-06 23:24 34.34701 -77.88462 878 ft 75 kts 199°
2026-05-06 23:24 34.34223 -77.88575 821 ft 66 kts 197°
2026-05-06 23:24 34.33799 -77.88618 802 ft 59 kts 197°
2026-05-06 23:24 34.33387 -77.88697 658 ft 63 kts 198°
2026-05-06 23:25 34.32928 -77.88794 500 ft 68 kts 201°
2026-05-06 23:25 34.32464 -77.88869 486 ft 68 kts 195°
2026-05-06 23:25 34.31984 -77.89030 660 ft 74 kts 200°
2026-05-06 23:25 34.31495 -77.89215 628 ft 74 kts 200°
2026-05-06 23:26 34.31009 -77.89433 583 ft 76 kts 205°
2026-05-06 23:26 34.30510 -77.89713 565 ft 82 kts 199°
2026-05-06 23:26 34.29949 -77.89924 562 ft 85 kts 197°
2026-05-06 23:26 34.29405 -77.90055 560 ft 72 kts 188°
2026-05-06 23:27 34.29103 -77.90140 522 ft 64 kts 187°
2026-05-06 23:27 34.28690 -77.90279 480 ft 60 kts 190°
2026-05-06 23:27 34.28305 -77.90349 419 ft 50 kts 189°
2026-05-06 23:27 34.27954 -77.90396 337 ft 30 kts 184°
2026-05-06 23:28 34.27789 -77.90435 234 ft 19 kts 186°
2026-05-06 23:28 34.27696 -77.90461 219 ft 24 kts 189°
2026-05-06 23:28 34.27524 -77.90519 211 ft 27 kts 194°
2026-05-06 23:28 34.27351 -77.90611 185 ft 24 kts 201°
2026-05-06 23:29 34.27239 -77.90710 132 ft 17 kts 223°
2026-05-06 23:29 34.27164 -77.90785 123 ft 12 kts 243°
2026-05-06 23:29 34.27119 -77.90871 86 ft 11 kts 258°
2026-05-06 23:29 34.27112 -77.90929 47 ft 2 kts 348°
2026-05-06 23:30 34.27115 -77.90934 37 ft 1 kts 44°
2026-05-06 23:30 34.27118 -77.90932 34 ft 0 kts 44°
2026-05-06 23:32 34.27117 -77.90932 36 ft 0 kts 37°